Regional Weather Roundup
Issued by NWS Sioux Falls, SD

Home | Current Version | Previous Version | Graphics & Text | Print | Product List | Glossary On
Versions: 1 2 3 4 5 6 7 8 9 10 11 12 13 14 15 16 17 18 19 20 21 22 23 24 25 26 27 28 29 30 31 32 33 34 35 36 37 38 39 40 41 42 43 44 45 46 47 48 49 50
000
ASUS43 KFSD 042210
RWRFSD

WEATHER ROUNDUP FOR SE SOUTH DAKOTA/SW MINNESOTA/NW IOWA
NATIONAL WEATHER SERVICE SIOUX FALLS SD
400 PM CST SUN DEC 04 2016

NOTE: "FAIR" INDICATES FEW OR NO CLOUDS BELOW 12,000 FEET WITH NO
SIGNIFICANT WEATHER AND OR OBSTRUCTIONS TO VISIBILITY.


SDZ038>040-050-052>070-042300-
SOUTHEAST SOUTH DAKOTA

CITY           SKY/WX    TMP DP  RH WIND       PRES   REMARKS
BROOKINGS      CLEAR     39  32  76 W12       29.77R
CHAMBERLAIN    CLEAR     44  29  56 W3        29.79F
HURON          CLEAR     41  31  67 W8        29.79S
MADISON        FAIR      39  36  87 W9        29.78S
MITCHELL       CLEAR     43  31  62 W10       29.81S
SIOUX FALLS    PTCLDY    43  33  68 W7        29.80S
WINNER         FAIR      47  25  42 SW8       29.79F
YANKTON        CLEAR     46  28  49 W8        29.83R
$$

MNZ071-072-080-081-089-090-097-098-042300-
SOUTHWEST MINNESOTA

CITY           SKY/WX    TMP DP  RH WIND       PRES   REMARKS
FAIRMONT       CLEAR     43  35  73 W9        29.79S
JACKSON        CLEAR     41  32  70 W12       29.79S
LUVERNE        CLEAR     41  32  70 W12       29.80S
MARSHALL       CLEAR     40  32  73 W14       29.77R
MONTEVIDEO     CLEAR     39  34  81 NW10      29.78R
PIPESTONE      CLEAR     39  34  81 W12       29.78R
REDWOOD FALLS  PTCLDY    41  31  67 W17       29.76R
TRACY          CLEAR     41  34  74 W8        29.77S
WINDOM         CLEAR     43  34  70 W10       29.78S
WORTHINGTON    CLEAR     41  33  73 W13       29.79R
$$

IAZ001>003-012>014-020>022-031-032-NEZ013-014-SDZ071-042300-
NORTHWEST IOWA

CITY           SKY/WX    TMP DP  RH WIND       PRES   REMARKS
CHEROKEE       CLEAR     45  36  72 W5        29.83S
DENISON        CLEAR     41  36  81 SW12      29.84S
ESTHERVILLE    CLEAR     42  36  79 W12       29.80R
LE MARS        CLEAR     46  32  57 W10       29.84S
ORANGE CITY    CLEAR     45  34  65 W12       29.82S
SHELDON        CLEAR     43  36  75 W10       29.80R
SIOUX CITY     CLEAR     50  32  50 W9        29.84S
SPENCER        CLEAR     43  34  70 W13G22    29.82R
STORM LAKE     CLEAR     39  36  87 SW10      29.83S
$$

ABBREVIATIONS USED IN REMARKS
   TC - TEMPERATURE IN CELSIUS
  WCI - WIND CHILL INDEX
   HX - HEAT INDEX
  VSB - VISIBILITY





USA.gov is the U.S. government's official web portal to all federal, state and local government web resources and services.